GW0055 Weather Reports


Display with metric or nautical units.
time (UTC)temp
F
wind
direction
speed
MPH
gust
MPH
rain 1hr
in
rain 24hr
in
rain mn
in
humidity
%
barometer
mb
20260906044036 74 34 3.0 7.0 0.00 0.00 0.00 86 1017.3
20260906043536 74 32 3.0 7.0 0.00 0.00 0.00 85 1017.4
20260906043054 75 36 3.0 7.0 0.00 0.00 0.00 85 1017.4
20260906042536 75 31 3.0 7.0 0.00 0.00 0.00 85 1017.4
20260906042038 75 39 3.0 7.0 0.00 0.00 0.00 85 1017.5
20260906041553 75 35 3.0 5.0 0.00 0.00 0.00 85 1017.5
20260906041038 75 37 2.0 5.0 0.00 0.00 0.00 85 1017.5
20260906040538 75 38 3.0 6.0 0.00 0.00 0.00 85 1017.3
20260906040050 75 61 3.0 8.0 0.00 0.00 0.00 85 1017.2
20260906035537 75 34 4.0 8.0 0.00 0.00 0.00 85 1016.9
20260906035039 75 40 4.0 8.0 0.00 0.00 0.00 85 1016.7
20260906034604 75 47 4.0 7.0 0.00 0.00 0.00 85 1016.7
20260906034038 75 64 4.0 7.0 0.00 0.00 0.00 85 1016.8
20260906033534 75 59 3.0 8.0 0.00 0.00 0.00 85 1016.7
20260906033055 75 43 3.0 8.0 0.00 0.00 0.00 84 1016.7
20260906032538 76 73 4.0 8.0 0.00 0.00 0.00 84 1016.6
20260906032035 76 26 4.0 8.0 0.00 0.00 0.00 84 1016.7
20260906031554 76 57 5.0 8.0 0.00 0.00 0.00 84 1016.7
20260906031038 76 70 4.0 8.0 0.00 0.00 0.00 84 1016.8
20260906030535 76 74 3.0 8.0 0.00 0.00 0.00 84 1016.8
20260906030056 76 58 3.0 7.0 0.00 0.00 0.00 84 1016.8
20260906025534 76 35 4.0 9.0 0.00 0.00 0.00 84 1016.8
20260906025040 77 51 6.0 11.0 0.00 0.00 0.00 84 1016.9
20260906024557 77 36 6.0 11.0 0.00 0.00 0.00 84 1016.8
20260906024038 77 59 5.0 9.0 0.00 0.00 0.00 84 1017.0
20260906023538 77 49 4.0 9.0 0.00 0.00 0.00 84 1016.7
20260906023048 77 68 5.0 10.0 0.00 0.00 0.00 83 1016.8
20260906022537 78 49 6.0 10.0 0.00 0.00 0.00 83 1016.7
20260906022038 78 43 6.0 12.0 0.00 0.00 0.00 83 1016.7
20260906021556 78 46 6.0 12.0 0.00 0.00 0.00 82 1016.6
20260906021119 78 50 7.0 11.0 0.00 0.00 0.00 82 1016.5
20260906020535 78 30 7.0 11.0 0.00 0.00 0.00 82 1016.4
20260906020056 79 35 5.0 11.0 0.00 0.00 0.00 82 1016.3
20260906015535 79 53 7.0 11.0 0.00 0.00 0.00 82 1016.3
20260906015037 79 34 7.0 11.0 0.00 0.00 0.00 82 1016.3
20260906014554 79 36 6.0 13.0 0.00 0.00 0.00 82 1016.3
20260906014034 79 24 8.0 13.0 0.00 0.00 0.00 81 1016.1
20260906013541 80 30 9.0 13.0 0.00 0.00 0.00 81 1016.1
20260906013058 80 32 8.0 11.0 0.00 0.00 0.00 81 1016.1
20260906012537 80 16 7.0 11.0 0.00 0.00 0.00 81 1016.1
20260906012038 81 31 8.0 11.0 0.00 0.00 0.00 80 1016.1
20260906011555 81 32 8.0 12.0 0.00 0.00 0.00 80 1016.1
20260906011035 81 42 8.0 12.0 0.00 0.00 0.00 79 1015.9
20260906010539 82 37 6.0 11.0 0.00 0.00 0.00 79 1015.8
20260906010137 82 28 6.0 11.0 0.00 0.00 0.00 79 1015.8
20260906005534 82 36 7.0 11.0 0.00 0.00 0.00 78 1015.7
20260906005040 82 28 7.0 10.0 0.00 0.00 0.00 78 1015.7
20260906004608 83 39 6.0 10.0 0.00 0.00 0.00 78 1015.7
20260906004037 83 11 5.0 9.0 0.00 0.00 0.00 78 1015.7
20260906003538 83 27 6.0 9.0 0.00 0.00 0.00 77 1015.6
20260906003058 84 22 6.0 9.0 0.00 0.00 0.00 77 1015.7
20260906002539 84 34 5.0 11.0 0.00 0.00 0.00 76 1015.7
20260906002036 84 34 8.0 11.0 0.00 0.00 0.00 76 1015.6
20260906001603 84 2 5.0 10.0 0.00 0.00 0.00 76 1015.7
20260906001038 85 16 7.0 13.0 0.00 0.00 0.00 76 1015.7
20260906000535 85 28 9.0 13.0 0.00 0.00 0.00 76 1015.7
20260906000057 85 35 8.0 13.0 0.00 0.00 0.00 76 1015.7
20260905235538 86 18 7.0 14.0 0.00 0.00 0.00 75 1015.6
20260905235035 86 7 9.0 14.0 0.00 0.00 0.00 75 1015.5
20260905234551 87 32 10.0 14.0 0.00 0.00 0.00 74 1015.5
20260905234038 87 18 8.0 13.0 0.00 0.00 0.00 73 1015.4
20260905233536 88 15 5.0 9.0 0.00 0.00 0.00 73 1015.4
20260905233056 88 22 6.0 9.0 0.00 0.00 0.00 73 1015.4
20260905232535 88 15 5.0 8.0 0.00 0.00 0.00 72 1015.4
20260905232035 88 25 4.0 8.0 0.00 0.00 0.00 72 1015.3
20260905231556 88 30 4.0 9.0 0.00 0.00 0.00 71 1015.2
20260905231036 89 28 6.0 12.0 0.00 0.00 0.00 70 1015.1
20260905230537 89 22 7.0 12.0 0.00 0.00 0.00 69 1015.2
20260905230048 90 12 8.0 12.0 0.00 0.00 0.00 68 1015.2
20260905225538 90 10 7.0 10.0 0.00 0.00 0.00 68 1015.1
20260905225035 91 22 6.0 9.0 0.00 0.00 0.00 67 1015.1
20260905224545 91 16 6.0 10.0 0.00 0.00 0.00 67 1015.1
20260905224036 91 45 4.0 10.0 0.00 0.00 0.00 68 1015.1
20260905223536 91 41 6.0 10.0 0.00 0.00 0.00 67 1015.1
20260905223056 91 29 5.0 8.0 0.00 0.00 0.00 66 1015.1
20260905222536 91 39 4.0 8.0 0.00 0.00 0.00 67 1015.1
20260905222036 91 9 6.0 8.0 0.00 0.00 0.00 67 1015.0
20260905221554 92 11 4.0 7.0 0.00 0.00 0.00 65 1015.1
20260905221036 92 21 3.0 9.0 0.00 0.00 0.00 65 1015.1
20260905220536 92 27 6.0 9.0 0.00 0.00 0.00 65 1015.2
20260905220046 92 326 5.0 8.0 0.00 0.00 0.00 66 1015.2
20260905215536 91 340 3.0 9.0 0.00 0.00 0.00 67 1015.1
20260905215036 91 7 4.0 9.0 0.00 0.00 0.00 65 1015.1
20260905214553 91 16 6.0 9.0 0.00 0.00 0.00 65 1015.1
20260905214036 91 342 5.0 9.0 0.00 0.00 0.00 66 1015.0
20260905213536 91 357 6.0 9.0 0.00 0.00 0.00 65 1015.1
20260905213050 91 347 4.0 10.0 0.00 0.00 0.00 65 1015.1
20260905212540 91 347 7.0 10.0 0.00 0.00 0.00 65 1015.2
20260905212036 91 7 6.0 10.0 0.00 0.00 0.00 68 1015.2
20260905211601 91 20 8.0 10.0 0.00 0.00 0.00 67 1015.2
20260905211036 91 352 7.0 11.0 0.00 0.00 0.00 67 1015.4
20260905210535 91 345 6.0 11.0 0.00 0.00 0.00 67 1015.4
20260905210110 91 349 9.0 11.0 0.00 0.00 0.00 67 1015.4
20260905205536 91 28 7.0 11.0 0.00 0.00 0.00 67 1015.5
20260905205035 91 354 7.0 11.0 0.00 0.00 0.00 67 1015.6
20260905204552 91 21 5.0 11.0 0.00 0.00 0.00 68 1015.6
20260905204036 91 9 7.0 11.0 0.00 0.00 0.00 69 1015.6
20260905203536 91 42 5.0 11.0 0.00 0.00 0.00 69 1015.6
20260905203048 91 11 7.0 11.0 0.00 0.00 0.00 69 1015.6
20260905202535 91 358 5.0 10.0 0.00 0.00 0.00 69 1015.6
20260905202036 91 36 7.0 11.0 0.00 0.00 0.00 69 1015.5
20260905201556 91 357 8.0 12.0 0.00 0.00 0.00 68 1015.6
20260905201035 91 11 8.0 11.0 0.00 0.00 0.00 67 1015.6
20260905200535 92 18 6.0 10.0 0.00 0.00 0.00 68 1015.6
20260905200118 92 352 5.0 8.0 0.00 0.00 0.00 66 1015.6
20260905195535 92 22 4.0 8.0 0.00 0.00 0.00 66 1015.7
20260905195037 91 350 4.0 8.0 0.00 0.00 0.00 66 1015.8
20260905194552 91 336 4.0 10.0 0.00 0.00 0.00 66 1015.7
20260905194036 91 354 5.0 10.0 0.00 0.00 0.00 67 1015.8
20260905193535 91 346 8.0 10.0 0.00 0.00 0.00 67 1015.9
20260905193101 92 343 5.0 10.0 0.00 0.00 0.00 68 1015.9
20260905192536 92 329 6.0 10.0 0.00 0.00 0.00 65 1015.9
20260905192037 92 331 7.0 10.0 0.00 0.00 0.00 66 1015.8
20260905191556 92 324 5.0 9.0 0.00 0.00 0.00 67 1015.9
20260905191036 92 330 3.0 8.0 0.00 0.00 0.00 65 1015.9
20260905190535 92 17 5.0 8.0 0.00 0.00 0.00 65 1015.9
20260905190054 92 353 6.0 9.0 0.00 0.00 0.00 65 1016.0
20260905185535 92 349 6.0 9.0 0.00 0.00 0.00 65 1015.9
20260905185036 92 338 3.0 10.0 0.00 0.00 0.00 65 1016.0
20260905184600 92 341 5.0 10.0 0.00 0.00 0.00 66 1015.9
20260905184039 92 350 4.0 10.0 0.00 0.00 0.00 65 1015.9
20260905183536 92 332 4.0 10.0 0.00 0.00 0.00 65 1015.9
20260905183057 92 9 5.0 10.0 0.00 0.00 0.00 66 1016.1
20260905182539 92 19 7.0 10.0 0.00 0.00 0.00 66 1016.1
20260905182040 92 7 4.0 10.0 0.00 0.00 0.00 66 1016.0
20260905181555 91 20 3.0 10.0 0.00 0.00 0.00 65 1016.0
20260905181035 91 337 6.0 10.0 0.00 0.00 0.00 65 1016.0
20260905180537 91 8 8.0 10.0 0.00 0.00 0.00 66 1016.1
20260905180050 91 16 4.0 9.0 0.00 0.00 0.00 66 1016.1
20260905175536 91 6 6.0 9.0 0.00 0.00 0.00 67 1016.1
20260905175037 91 18 4.0 11.0 0.00 0.00 0.00 67 1016.1
20260905174546 91 340 6.0 11.0 0.00 0.00 0.00 66 1016.2
20260905174039 91 352 8.0 11.0 0.00 0.00 0.00 66 1016.4
20260905173535 91 347 7.0 10.0 0.00 0.00 0.00 65 1016.3
20260905173055 91 19 4.0 11.0 0.00 0.00 0.00 67 1016.3
20260905172536 90 13 6.0 11.0 0.00 0.00 0.00 66 1016.4
20260905172035 90 30 6.0 11.0 0.00 0.00 0.00 67 1016.5
20260905171553 90 30 7.0 11.0 0.00 0.00 0.00 68 1016.5
20260905171037 90 34 6.0 11.0 0.00 0.00 0.00 69 1016.5
20260905170535 90 357 8.0 11.0 0.00 0.00 0.00 68 1016.6
20260905170057 90 11 6.0 9.0 0.00 0.00 0.00 67 1016.6
20260905165537 90 347 5.0 10.0 0.00 0.00 0.00 68 1016.6
20260905165035 90 342 4.0 10.0 0.00 0.00 0.00 68 1016.6
20260905164554 90 6 5.0 10.0 0.00 0.00 0.00 69 1016.6
20260905164036 90 342 4.0 10.0 0.00 0.00 0.00 69 1016.6
20260905163535 89 5 5.0 10.0 0.00 0.00 0.00 69 1016.6
20260905163053 89 21 5.0 11.0 0.00 0.00 0.00 69 1016.6
20260905162535 89 41 5.0 11.0 0.00 0.00 0.00 69 1016.6
20260905162034 89 7 7.0 11.0 0.00 0.00 0.00 68 1016.6
20260905161547 89 334 7.0 10.0 0.00 0.00 0.00 68 1016.5
20260905161036 89 11 6.0 10.0 0.00 0.00 0.00 68 1016.4
20260905160538 89 341 6.0 10.0 0.00 0.00 0.00 67 1016.4
20260905160056 89 330 7.0 10.0 0.00 0.00 0.00 66 1016.5
20260905155536 88 331 5.0 10.0 0.00 0.00 0.00 67 1016.3
20260905155035 88 14 5.0 10.0 0.00 0.00 0.00 68 1016.3
20260905154601 88 343 7.0 10.0 0.00 0.00 0.00 69 1016.3
20260905154035 87 356 7.0 11.0 0.00 0.00 0.00 70 1016.4
20260905153537 87 2 8.0 11.0 0.00 0.00 0.00 71 1016.5
20260905153052 87 1 7.0 10.0 0.00 0.00 0.00 71 1016.4
20260905152535 87 360 4.0 10.0 0.00 0.00 0.00 70 1016.3
20260905152035 87 338 7.0 10.0 0.00 0.00 0.00 70 1016.3
20260905151558 87 353 7.0 9.0 0.00 0.00 0.00 70 1016.3
20260905151035 87 331 5.0 8.0 0.00 0.00 0.00 71 1016.3
20260905150535 87 336 3.0 7.0 0.00 0.00 0.00 71 1016.2
20260905150055 87 325 4.0 8.0 0.00 0.00 0.00 71 1016.0
20260905145536 87 337 6.0 8.0 0.00 0.00 0.00 70 1015.9
20260905145035 87 341 5.0 8.0 0.00 0.00 0.00 71 1016.0
20260905144555 86 342 2.0 9.0 0.00 0.00 0.00 71 1015.8
20260905144035 86 274 4.0 9.0 0.00 0.00 0.00 70 1015.8
20260905143535 86 298 4.0 8.0 0.00 0.00 0.00 70 1015.7
20260905143052 86 274 3.0 6.0 0.00 0.00 0.00 72 1015.6
20260905142535 85 267 3.0 6.0 0.00 0.00 0.00 72 1015.6
20260905142035 85 251 3.0 6.0 0.00 0.00 0.00 71 1015.6
20260905141555 85 0 3.0 6.0 0.00 0.00 0.00 71 1015.6
20260905141035 85 242 3.0 6.0 0.00 0.00 0.00 71 1015.5
20260905140535 85 251 2.0 5.0 0.00 0.00 0.00 72 1015.4
20260905140055 84 257 1.0 6.0 0.00 0.00 0.00 72 1015.4
20260905135539 84 269 1.0 7.0 0.00 0.00 0.00 73 1015.6
20260905135035 84 290 4.0 7.0 0.00 0.00 0.00 72 1015.5
20260905134552 83 286 3.0 6.0 0.00 0.00 0.00 73 1015.5
20260905134037 83 245 2.0 8.0 0.00 0.00 0.00 74 1015.3
20260905133535 83 255 3.0 8.0 0.00 0.00 0.00 73 1015.4
20260905133044 83 272 3.0 6.0 0.00 0.00 0.00 74 1015.2
20260905132535 82 224 2.0 7.0 0.00 0.00 0.00 75 1015.1
20260905132036 82 237 3.0 7.0 0.00 0.00 0.00 75 1015.1
20260905131603 81 246 3.0 7.0 0.00 0.00 0.00 76 1015.1
20260905131035 81 234 3.0 7.0 0.00 0.00 0.00 77 1015.1
20260905130535 80 240 3.0 7.0 0.00 0.00 0.00 77 1015.1
20260905130051 79 236 3.0 7.0 0.00 0.00 0.00 78 1015.1
20260905125535 79 226 2.0 5.0 0.00 0.00 0.00 79 1015.1
20260905125035 79 245 2.0 5.0 0.00 0.00 0.00 80 1015.3
20260905124548 78 235 2.0 5.0 0.00 0.00 0.00 81 1015.4
20260905124037 78 226 1.0 5.0 0.00 0.00 0.00 81 1015.4
20260905123537 77 262 2.0 5.0 0.00 0.00 0.00 82 1015.4
20260905123109 77 244 1.0 3.0 0.00 0.00 0.00 83 1015.5
20260905122535 76 356 0.0 2.0 0.00 0.00 0.00 83 1015.3
20260905122038 76 0 0.0 1.0 0.00 0.00 0.00 83 1015.2
20260905121553 76 0 0.0 2.0 0.00 0.00 0.00 83 1015.1
20260905121035 76 0 0.0 4.0 0.00 0.00 0.00 83 1015.0
20260905120537 76 356 1.0 4.0 0.00 0.00 0.00 83 1015.0
20260905120048 76 356 2.0 4.0 0.00 0.00 0.00 83 1014.9
20260905115538 76 356 2.0 4.0 0.00 0.00 0.00 83 1014.7
20260905115041 76 0 0.0 1.0 0.00 0.00 0.00 83 1014.7
20260905114548 76 199 0.0 1.0 0.00 0.00 0.00 83 1014.6
20260905114037 76 199 0.0 2.0 0.00 0.00 0.00 83 1014.6
20260905113539 76 199 1.0 2.0 0.00 0.00 0.00 83 1014.5
20260905113055 77 199 1.0 2.0 0.00 0.00 0.00 82 1014.5
20260905112534 77 199 1.0 2.0 0.00 0.00 0.00 82 1014.5
20260905112035 77 199 1.0 2.0 0.00 0.00 0.00 82 1014.5
20260905111556 77 199 0.0 2.0 0.00 0.00 0.00 82 1014.5
20260905111035 77 199 0.0 2.0 0.00 0.00 0.00 81 1014.5
20260905110542 77 199 1.0 2.0 0.00 0.00 0.00 81 1014.4
20260905110047 78 199 0.0 2.0 0.00 0.00 0.00 79 1014.4
20260905105538 78 0 0.0 2.0 0.00 0.00 0.00 79 1014.3
20260905105036 78 199 1.0 2.0 0.00 0.00 0.00 79 1014.3
20260905104545 78 0 0.0 2.0 0.00 0.00 0.00 79 1014.4
20260905104034 78 0 0.0 2.0 0.00 0.00 0.00 79 1014.4
20260905103539 78 0 0.0 2.0 0.00 0.00 0.00 79 1014.4
20260905103103 78 199 1.0 3.0 0.00 0.00 0.00 79 1014.4
20260905102534 78 199 1.0 4.0 0.00 0.00 0.00 80 1014.4
20260905102034 78 199 1.0 4.0 0.00 0.00 0.00 80 1014.4
20260905101553 78 209 2.0 4.0 0.00 0.00 0.00 80 1014.5
20260905101034 78 218 2.0 6.0 0.00 0.00 0.00 81 1014.5
20260905100534 77 209 2.0 6.0 0.00 0.00 0.00 81 1014.5
20260905095534 77 220 2.0 6.0 0.00 0.00 0.00 83 1014.6
20260905095039 77 210 2.0 3.0 0.00 0.00 0.00 83 1014.6
20260905094555 77 202 1.0 2.0 0.00 0.00 0.00 84 1014.7
20260905094035 77 202 1.0 2.0 0.00 0.00 0.00 84 1014.6
20260905093534 76 202 1.0 2.0 0.00 0.00 0.00 84 1014.7
20260905093050 76 202 1.0 2.0 0.00 0.00 0.00 84 1014.7
20260905092534 76 202 1.0 2.0 0.00 0.00 0.00 84 1014.8
20260905092035 76 0 0.0 3.0 0.00 0.00 0.00 84 1014.8
20260905091553 77 0 1.0 3.0 0.00 0.00 0.00 84 1014.7
20260905091038 77 202 1.0 2.0 0.00 0.00 0.00 83 1014.7
20260905090534 77 202 0.0 2.0 0.00 0.00 0.00 83 1014.6
20260905090055 77 202 1.0 2.0 0.00 0.00 0.00 83 1014.6
20260905085536 77 202 1.0 2.0 0.00 0.00 0.00 83 1014.6
20260905085035 77 202 0.0 3.0 0.00 0.00 0.00 82 1014.6
20260905084606 78 0 0.0 3.0 0.00 0.00 0.00 82 1014.7
20260905084035 78 202 1.0 3.0 0.00 0.00 0.00 82 1014.7
20260905083540 78 202 1.0 2.0 0.00 0.00 0.00 82 1014.8
20260905083059 78 202 0.0 2.0 0.00 0.00 0.00 82 1014.7
20260905082535 78 202 1.0 2.0 0.00 0.00 0.00 82 1014.7
20260905082035 78 0 0.0 3.0 0.00 0.00 0.00 81 1014.7
20260905081545 78 0 1.0 3.0 0.00 0.00 0.00 81 1014.8
20260905081034 78 202 1.0 2.0 0.00 0.00 0.00 81 1014.8
20260905080538 78 202 0.0 3.0 0.00 0.00 0.00 81 1014.9
20260905080134 78 202 1.0 4.0 0.00 0.00 0.00 81 1014.8
20260905075536 78 202 2.0 4.0 0.00 0.00 0.00 81 1014.9
20260905075035 78 166 2.0 3.0 0.00 0.00 0.00 81 1014.9
20260905074553 78 166 1.0 3.0 0.00 0.00 0.00 81 1014.9
20260905074036 79 166 0.0 1.0 0.00 0.00 0.00 81 1014.9
20260905073538 79 0 0.0 3.0 0.00 0.00 0.00 82 1014.9
20260905073049 78 0 0.0 3.0 0.00 0.00 0.00 82 1014.8
20260905072538 79 166 1.0 3.0 0.00 0.00 0.00 82 1014.8
20260905072034 79 166 2.0 4.0 0.00 0.00 0.00 82 1014.7
20260905071602 79 178 2.0 4.0 0.00 0.00 0.00 82 1014.6
20260905071037 79 170 2.0 4.0 0.00 0.00 0.00 81 1014.7
20260905070534 79 170 1.0 3.0 0.00 0.00 0.00 81 1014.8
20260905070057 79 170 1.0 3.0 0.00 0.00 0.00 81 1014.9
20260905065534 79 170 1.0 2.0 0.00 0.00 0.00 81 1014.9
20260905065035 79 170 1.0 5.0 0.00 0.00 0.00 81 1014.9
20260905064600 79 170 1.0 5.0 0.00 0.00 0.00 81 1014.8
20260905064035 79 186 2.0 4.0 0.00 0.00 0.00 81 1014.6
20260905063535 79 181 2.0 4.0 0.00 0.00 0.00 82 1014.7
20260905063057 79 181 2.0 4.0 0.00 0.00 0.00 82 1014.7
20260905062535 79 181 2.0 4.0 0.00 0.00 0.00 83 1014.7
20260905062037 78 180 2.0 4.0 0.00 0.00 0.00 84 1014.8
20260905061551 78 188 2.0 4.0 0.00 0.00 0.00 84 1014.8
20260905061037 78 113 2.0 4.0 0.00 0.00 0.00 85 1014.9
20260905060535 78 113 1.0 3.0 0.00 0.00 0.00 85 1015.0
20260905060101 78 113 1.0 2.0 0.00 0.00 0.00 85 1014.9
20260905055538 78 113 1.0 2.0 0.00 0.00 0.00 85 1015.0
20260905055034 78 113 1.0 3.0 0.00 0.00 0.00 85 1015.1
20260905054554 78 113 1.0 3.0 0.00 0.00 0.00 84 1015.1
20260905054035 79 113 1.0 3.0 0.00 0.00 0.00 84 1015.2
20260905053536 79 113 0.0 3.0 0.00 0.00 0.00 83 1015.2
20260905053058 79 113 1.0 3.0 0.00 0.00 0.00 83 1015.3
20260905052538 79 113 1.0 2.0 0.00 0.00 0.00 83 1015.3
20260905052034 80 113 0.0 2.0 0.00 0.00 0.00 82 1015.3
20260905051553 80 113 1.0 3.0 0.00 0.00 0.00 82 1015.3
20260905051034 80 113 1.0 3.0 0.00 0.00 0.00 82 1015.4
20260905050537 80 113 1.0 2.0 0.00 0.00 0.00 81 1015.3
20260905050124 81 113 1.0 3.0 0.00 0.00 0.00 80 1015.2
20260905045535 81 113 1.0 3.0 0.00 0.00 0.00 79 1015.2
20260905045034 82 113 2.0 3.0 0.00 0.00 0.00 79 1015.2
20260905044552 82 70 1.0 3.0 0.00 0.00 0.00 78 1015.2